Total_Precipitation_Accumulation
0.27 0.34 0.35 0.32 0.32 0.34 0.37 0.42 0.55 0.63 0.81 0.96 0.95 1.00 1.15 1.04 0.88 0.84 0.74 0.75 0.78 0.73 0.66 0.63 0.66 0.76 0.95 1.11 1.24 1.37 1.59 1.73 1.83 1.88 1.89 1.91 1.92 1.99 1.99 1.88 1.84 2.03 2.05 2.01
0.34 0.36 0.39 0.36 0.36 0.32 0.30 0.29 0.34 0.53 0.78 0.78 0.76 0.82 0.98 0.99 1.04 1.01 0.90 0.74 0.68 0.70 0.71 0.71 0.65 0.68 0.74 0.91 1.09 1.24 1.46 1.60 1.67 1.79 1.90 1.88 1.82 1.86 1.85 1.88 1.92 1.98 1.95 1.97
0.45 0.49 0.56 0.58 0.45 0.44 0.42 0.38 0.42 0.66 0.80 0.67 0.68 0.73 0.77 0.82 0.96 0.96 0.91 0.97 0.96 0.87 0.88 0.77 0.68 0.70 0.73 0.80 0.98 1.18 1.33 1.42 1.54 1.68 1.76 1.77 1.72 1.78 1.87 1.90 1.89 1.81 1.75 1.77
0.48 0.65 0.90 0.68 0.42 0.38 0.39 0.42 0.41 0.52 0.59 0.58 0.63 0.63 0.71 0.83 0.85 0.83 0.74 0.76 0.90 0.97 0.97 0.94 0.84 0.86 0.89 0.93 1.03 1.19 1.33 1.43 1.51 1.63 1.68 1.71 1.69 1.65 1.71 1.73 1.74 1.77 1.68 1.68
0.59 0.72 0.76 0.65 0.52 0.51 0.52 0.56 0.41 0.46 0.53 0.59 0.69 0.73 0.83 0.75 0.72 0.77 0.70 0.78 0.82 0.88 0.97 1.10 1.12 1.09 1.12 1.21 1.28 1.24 1.31 1.45 1.57 1.67 1.72 1.73 1.75 1.71 1.74 1.74 1.70 1.72 1.72 1.75
0.62 0.86 0.96 0.79 0.60 0.62 0.70 1.00 0.68 0.60 0.68 0.75 0.76 1.00 1.08 0.76 0.77 0.90 0.76 0.74 0.81 0.84 0.86 1.04 1.16 1.18 1.21 1.27 1.32 1.28 1.34 1.45 1.58 1.70 1.83 1.80 1.86 1.90 1.87 1.78 1.73 1.75 1.80 1.78
0.68 0.90 1.02 0.72 0.57 0.69 1.22 1.37 0.86 0.78 0.81 0.87 0.93 0.96 0.90 0.77 0.88 1.01 0.85 0.78 0.71 0.77 0.99 1.11 1.16 1.23 1.30 1.27 1.32 1.34 1.47 1.56 1.67 1.76 1.83 1.83 1.91 1.97 1.97 1.91 1.91 1.80 1.70 1.71
0.92 1.18 1.27 0.76 0.68 0.99 1.16 0.88 0.83 0.83 0.80 0.83 0.85 0.82 0.76 0.71 0.77 0.86 0.90 0.88 0.91 1.01 1.11 1.15 1.19 1.34 1.47 1.51 1.44 1.54 1.64 1.63 1.71 1.84 1.70 1.70 1.94 2.02 2.04 2.07 2.04 1.92 1.80 1.74
1.14 1.26 1.08 0.94 1.00 1.07 0.93 0.97 0.88 0.79 0.80 0.78 0.78 0.77 0.77 0.74 0.68 0.74 0.88 0.90 0.99 1.09 1.11 1.13 1.19 1.34 1.59 1.62 1.55 1.56 1.65 1.70 1.71 1.77 1.90 1.99 2.05 2.10 2.06 2.03 2.02 2.00 1.96 1.85
1.30 1.29 1.15 1.12 1.12 1.11 1.03 1.02 0.93 0.82 0.86 0.81 0.84 0.93 0.88 0.86 0.86 0.79 0.83 0.87 0.93 1.04 1.06 1.18 1.27 1.42 1.68 1.73 1.68 1.70 1.77 1.86 1.86 1.83 1.89 2.07 2.25 2.25 2.17 2.03 2.07 2.11 2.00 1.98
1.58 1.51 1.31 1.17 1.04 0.99 0.94 0.89 0.84 0.86 0.92 0.93 0.92 1.00 0.99 1.04 1.07 0.99 0.91 0.89 0.98 1.13 1.25 1.28 1.33 1.41 1.58 1.74 1.87 1.95 1.98 1.97 1.98 2.01 2.05 2.13 2.13 2.11 2.10 2.05 1.99 2.03 2.01 1.99
1.83 1.51 1.34 1.29 1.14 1.10 0.93 0.82 0.82 0.86 0.88 0.95 0.96 1.01 0.99 1.05 1.11 1.08 1.09 1.17 1.18 1.21 1.33 1.39 1.42 1.48 1.59 1.80 2.08 2.28 2.25 2.15 2.15 2.14 2.15 2.12 2.12 1.96 1.83 1.76 1.70 1.61 1.65 1.66
1.52 1.36 1.29 1.19 1.13 1.18 1.12 1.00 0.96 0.96 0.94 1.00 1.08 1.06 1.07 1.10 1.11 1.13 1.13 1.27 1.36 1.33 1.35 1.42 1.43 1.54 1.66 1.80 2.06 2.32 2.39 2.35 2.26 2.18 2.09 2.04 2.10 2.10 2.00 1.87 1.83 1.69 1.55 1.48
1.41 1.48 1.44 1.30 1.22 1.20 1.29 1.21 1.06 1.06 0.98 0.97 1.10 1.22 1.22 1.10 1.09 1.15 1.15 1.21 1.26 1.28 1.32 1.32 1.29 1.34 1.55 1.84 2.12 2.27 2.30 2.26 2.19 2.15 2.08 2.03 2.09 2.14 2.04 1.99 1.98 1.87 1.70 1.59
1.39 1.57 1.53 1.33 1.37 1.28 1.20 1.17 1.20 1.31 1.14 1.03 1.12 1.36 1.36 1.16 1.11 1.20 1.19 1.16 1.20 1.26 1.31 1.29 1.31 1.35 1.46 1.76 2.14 2.28 2.25 2.18 2.13 2.10 2.14 2.19 2.20 2.23 2.18 2.16 2.14 2.05 1.82 1.65
1.39 1.48 1.47 1.32 1.34 1.32 1.22 1.22 1.28 1.31 1.19 1.10 1.11 1.31 1.48 1.35 1.21 1.23 1.22 1.26 1.33 1.32 1.34 1.32 1.31 1.37 1.48 1.70 1.99 2.18 2.28 2.25 2.15 2.03 2.00 2.09 2.18 2.13 2.11 2.16 2.14 2.07 1.96 1.73
1.57 1.66 1.54 1.35 1.29 1.28 1.31 1.30 1.34 1.38 1.38 1.33 1.26 1.30 1.42 1.38 1.36 1.36 1.33 1.35 1.43 1.43 1.40 1.41 1.43 1.46 1.53 1.71 1.92 1.95 2.01 1.95 1.89 1.75 1.72 1.75 1.89 1.98 2.00 2.10 2.05 1.91 1.80 1.70
1.67 1.68 1.56 1.39 1.26 1.24 1.29 1.30 1.31 1.41 1.52 1.46 1.40 1.47 1.58 1.61 1.65 1.61 1.46 1.40 1.41 1.44 1.49 1.49 1.47 1.51 1.58 1.65 1.85 1.87 1.88 1.84 1.72 1.63 1.64 1.71 1.80 1.85 1.93 2.01 1.97 1.86 1.69 1.58
1.61 1.54 1.43 1.36 1.31 1.35 1.43 1.42 1.37 1.39 1.46 1.46 1.49 1.53 1.60 1.71 1.71 1.66 1.59 1.56 1.58 1.62 1.63 1.62 1.65 1.46 1.53 1.67 1.85 2.01 2.01 1.93 1.88 1.84 1.74 1.79 1.78 1.83 1.93 1.89 1.81 1.79 1.72 1.59
1.57 1.48 1.42 1.44 1.40 1.45 1.49 1.45 1.41 1.31 1.29 1.36 1.43 1.45 1.52 1.66 1.70 1.70 1.67 1.64 1.69 1.80 1.78 1.72 1.52 1.44 1.47 1.65 1.86 1.90 2.03 2.02 1.91 1.78 1.71 1.67 1.70 1.79 1.84 1.75 1.65 1.63 1.59 1.49
1.70 1.63 1.61 1.57 1.57 1.54 1.49 1.46 1.38 1.30 1.26 1.31 1.43 1.50 1.56 1.68 1.78 1.83 1.88 1.85 1.76 1.69 1.57 1.54 1.41 1.43 1.43 1.57 1.70 1.72 1.85 1.92 1.92 1.83 1.71 1.60 1.55 1.58 1.58 1.53 1.48 1.46 1.45 1.44
1.77 1.64 1.56 1.44 1.41 1.41 1.35 1.30 1.23 1.19 1.21 1.28 1.38 1.47 1.54 1.60 1.70 1.72 1.71 1.83 1.79 1.71 1.46 1.37 1.39 1.49 1.51 1.48 1.44 1.58 1.71 1.72 1.69 1.60 1.48 1.38 1.37 1.39 1.38 1.31 1.27 1.22 1.19 1.18
1.71 1.49 1.41 1.35 1.28 1.23 1.15 1.09 1.04 1.08 1.14 1.19 1.32 1.49 1.64 1.61 1.62 1.68 1.63 1.47 1.42 1.40 1.31 1.29 1.32 1.35 1.31 1.26 1.34 1.44 1.51 1.52 1.50 1.48 1.42 1.34 1.30 1.32 1.27 1.14 1.09 1.03 0.98 0.95
1.50 1.30 1.22 1.18 1.12 1.05 1.02 0.97 0.92 0.94 0.98 1.06 1.17 1.31 1.51 1.61 1.52 1.37 1.40 1.36 1.21 1.10 1.08 1.12 1.10 1.09 1.08 1.05 1.16 1.25 1.29 1.29 1.30 1.27 1.20 1.15 1.14 1.16 1.08 0.99 0.93 0.90 0.90 0.88
1.39 1.27 1.16 1.09 1.06 1.02 0.96 0.89 0.87 0.89 0.95 1.06 1.13 1.18 1.35 1.54 1.58 1.34 1.12 1.00 0.95 0.87 0.84 0.84 0.81 0.82 0.79 0.79 0.84 0.94 1.02 1.08 1.11 1.09 1.03 1.02 1.04 1.06 1.00 0.92 0.86 0.85 0.84 0.85
1.33 1.26 1.22 1.13 1.06 1.06 1.01 0.97 0.99 1.00 1.08 1.25 1.27 1.18 1.23 1.30 1.28 1.14 0.99 0.84 0.80 0.81 0.72 0.67 0.64 0.61 0.55 0.53 0.58 0.69 0.74 0.81 0.89 0.89 0.85 0.89 0.93 0.94 0.93 0.91 0.86 0.82 0.82 0.83
1.23 1.19 1.17 1.11 1.01 1.01 1.07 1.09 1.13 1.16 1.28 1.51 1.57 1.36 1.24 1.22 1.17 1.09 1.01 0.90 0.83 0.83 0.75 0.66 0.62 0.58 0.54 0.53 0.55 0.62 0.66 0.69 0.76 0.80 0.80 0.78 0.81 0.87 0.86 0.86 0.88 0.83 0.77 0.75